Location: Newark
(34.0131°N, 4.3314°W)
Time: 16:58:50
(UTC+00:00)

Transit 2A Rocket - Pass Details

Date: 24 October 2019
Orbit: 594 x 909 km, 66.7° (Epoch: 17 November)

Event Time Altitude Azimuth Distance (km) Brightness Sun altitude
Rises 02:16:47 0° 155° (SSE) 3,282 - -51.9°
Reaches altitude 10° 02:21:20 10° 120° (ESE) 2,267 - -51.1°
Maximum altitude 02:22:35 11° 106° (ESE) 2,185 - -50.9°
Drops below altitude 10° 02:23:48 10° 91° (E) 2,219 - -50.6°
Exits shadow 02:27:41 - 58° (ENE) 2,950 8.7 -49.9°
Sets 02:28:03 0° 55° (NE) 3,054 8.8 -49.9°
